Flag for Germany Weather past 2 weeks in Hattingen, North Rhine-Westphalia, Germany

Now
65 °F

Passing clouds.


Feels Like: 65 °F
Forecast: 72 / 93 °F
Wind: 3 mph from Southeast

Location: Essen

Current Time: Jul 1, 2015 at 4:24:48 AM

Latest Report: Jul 1, 2015 at 4:00 AM


Visibility: 31 mi

Pressure: 30.09 "Hg

Humidity: 66%

Dew point: 54 °F

Location of HattingenLocation

Historic Weather in Hattingen — Graph

°F

Hattingen temperature yesterday

Maximum temperature yesterday: 81 °F (at 6:00 PM)
Minimum temperature yesterday: 60 °F (at 6:00 AM)
Average temperature yesterday: 71 °F

Past Weeks' High & Low Weather Summary

 TemperatureHumidityPressure
High81 °F (Jun 30, 6:00 PM)100% (Jun 18, 2:00 AM)30.31 "Hg (Jun 18, 2:00 AM)
Low46 °F (Jun 17, 5:00 AM)37% (Jun 30, 4:00 PM)29.71 "Hg (Jun 22, 9:00 PM)
Average61 °F73%30.08 "Hg
* Reported Jun 16 3:00 AM — Jul 1 3:00 AM, Hattingen, Weather by CustomWeather, © 2015

Note: Actual official high and low records may vary slightly from our data, if they occured in-between our weather recording intervals... More about our weather records

Advertising

Hattingen weather history for previous 24 hours

 ConditionsComfort  
Time TempWeatherWind HumidityBarometerVisibility
3:00 AM
Wed, Jul 1
65 °FClear.2 mph67%30.10 "Hg34 mi
2:00 AM67 °FClear.3 mph62%30.10 "Hg34 mi
1:00 AM69 °FClear.5 mph57%30.11 "Hg43 mi
12:00 AM70 °FClear.3 mph53%30.11 "Hg40 mi
11:00 PM
Tue, Jun 30
72 °FClear.5 mph49%30.11 "Hg40 mi
10:00 PM74 °FClear.5 mph45%30.11 "Hg37 mi
9:00 PM77 °FSunny.5 mph44%30.10 "Hg40 mi
8:00 PM79 °FSunny.5 mph37%30.10 "Hg34 mi
7:00 PM80 °FSunny.3 mph37%30.10 "Hg28 mi
6:00 PM81 °FSunny.3 mph37%30.11 "Hg31 mi
4:00 PM80 °FSunny.2 mph37%30.14 "Hg25 mi
3:00 PM79 °FSunny.3 mph38%30.14 "Hg19 mi
2:00 PM78 °FSunny.3 mph42%30.16 "Hg17 mi
1:00 PM76 °FSunny.3 mph46%30.17 "Hg14 mi
12:00 PM74 °FSunny.3 mph52%30.18 "Hg16 mi
11:00 AM72 °FSunny.3 mph59%30.19 "Hg14 mi
10:00 AM70 °FSunny.3 mph67%30.20 "Hg11 mi
9:00 AM67 °FSunny.2 mph75%30.20 "Hg10 mi
8:00 AM64 °FSunny.2 mph81%30.20 "Hg10 mi
7:00 AM61 °FSunny.1 mph88%30.20 "Hg8 mi
6:00 AM60 °FSunny.2 mph89%30.19 "Hg8 mi
5:00 AM61 °FClear.2 mph86%30.18 "Hg11 mi
4:00 AM61 °FClear.2 mph83%30.19 "Hg15 mi
Weather by CustomWeather, © 2015

See weather overviewHow to use our weather pages